Location: Petruro
(41.0333°N, 14.7833°E)
Time: 13:21:46
(UTC+00:00)

DELTA 2 R/B (1) - Pass Details

Date: 27 October 2021
Orbit: 791 x 802 km, 39.6° (Epoch: 04 December)

Event Time Altitude Azimuth Distance (km) Brightness Sun altitude
Rises 16:32:01 0° 192° (SSW) 3,289 7.1 -6.2°
Reaches altitude 10° 16:36:09 10° 163° (SSE) 2,362 6.0 -6.9°
Maximum altitude 16:38:15 12° 141° (SE) 2,213 5.6 -7.3°
Drops below altitude 10° 16:40:21 10° 118° (ESE) 2,364 5.6 -7.7°
Enters shadow 16:41:55 - 105° (ESE) 2,643 5.7 -8.0°
